#timestamp,LO_Frequency,Hit,StdDev 
1684882815.8,286046996.7,N
1684882835.6,286046999.0,N
1684882855.5,286046999.0,N
1684882875.3,286046998.8,N
1684882895.1,286046998.6,N
1684882915.9,286047000.8,N
1684882935.7,286046998.7,N
1684882955.5,286046999.0,N
1684882975.4,286046998.4,N
1684882995.2,286046998.4,N
1684883015.0,286047000.5,N
1684883016.0,286047000.5,N
1684883035.8,286046998.2,N
1684883055.6,286047001.1,N
1684883075.5,286046998.2,N
1684883095.3,286046998.1,N
1684883115.1,286046999.3,N
1684883135.9,286046999.3,N
1684883155.7,286047001.2,N
1684883175.6,286046998.6,N
1684883195.4,286046998.4,N
1684883215.2,286046999.0,N
1684883235.1,286046998.7,N
1684883236.0,286046998.7,N
1684883255.8,286046999.1,N
1684883275.7,286046999.0,N
1684883295.5,286046999.3,N
1684883315.3,286046998.9,N
1684883335.2,286046998.8,N
1684883355.9,286046999.1,N
1684883375.7,286046999.3,N
1684883395.6,286046999.1,N
1684883415.4,286046999.0,N
1684883435.3,286046998.5,N
1684883455.1,286046998.5,N
1684883456.0,286046998.5,N
1684883475.8,286046998.5,N
1684883495.7,286046998.6,N
1684883515.5,286046998.9,N
1684883535.3,286047000.6,N
1684883555.2,286046998.5,N
1684883575.0,286046998.7,N
1684883575.9,286046998.7,N
1684883595.8,286046999.1,N
1684883615.6,286046998.8,N
1684883635.4,286046998.8,N
1684883655.3,286046998.9,N
1684883675.1,286046999.1,N
1684883695.9,286046998.9,N
1684883715.7,286046999.0,N
1684883735.6,286046998.6,Y
1684883755.4,286046998.6,P
1684883775.2,286046998.5,P
1684883795.1,286046998.3,P
1684883796.0,286046998.3,Y
1684883815.8,286047002.4,P
1684883835.7,286046999.8,N
1684883855.5,286047000.1,N
1684883875.3,286046999.9,N
1684883895.2,286047002.0,N
1684883915.0,286047002.5,N
1684883915.9,286047002.5,N
1684883935.8,286047002.2,N
1684883955.6,286047000.5,N
1684883975.4,286047000.4,N
1684883995.3,286047000.8,N
1684884015.1,286046998.3,N
1684884035.8,286046999.5,N
1684884055.7,286046999.2,N
1684884075.5,286046999.5,N
1684884095.4,286046999.1,N
1684884115.2,286046997.0,N
1684884135.0,286046999.4,N
1684884135.9,286046999.4,N
1684884155.8,286046997.3,N
1684884175.6,286046996.5,N
1684884195.4,286046998.8,N
1684884215.3,286047000.8,N
1684884235.1,286047000.7,N
1684884255.9,286047000.5,N
1684884275.7,286047000.5,N
1684884295.5,286047000.4,N
1684884315.4,286047002.4,N
1684884335.2,286047002.2,N
1684884355.1,286047001.9,N
1684884356.0,286047001.9,N
1684884375.8,286047001.4,N
1684884395.6,286047003.8,N
1684884415.5,286047003.4,N
1684884435.3,286047003.5,N
1684884455.1,286047005.7,Y
1684884475.9,286047005.5,P
1684884495.7,286047005.8,N
1684884515.6,286047006.0,N
1684884535.4,286047001.4,N
1684884555.2,286047003.6,N
1684884575.1,286047001.3,N
1684884576.0,286047001.3,N
1684884595.8,286047004.0,N
1684884615.6,286047004.1,N
1684884635.5,286047003.3,N
1684884655.3,286047003.8,N
1684884675.2,286047003.3,N
1684884695.9,286047003.0,N
1684884715.7,286047005.6,Y
1684884735.6,286047001.5,P
1684884755.4,286047002.1,N
1684884775.2,286047004.4,P
1684884795.1,286047001.7,N
1684884796.0,286047001.7,N
1684884815.8,286047001.6,N
1684884835.7,286047001.3,N
1684884855.5,286047004.1,Y
1684884875.3,286046999.9,P
1684884895.2,286047002.5,N
1684884915.0,286047002.2,N
1684884915.9,286047002.2,N
1684884935.8,286047004.0,Y
1684884955.6,286046998.2,P
1684884975.4,286046998.3,N
1684884995.3,286047000.8,N
1684885015.1,286047000.4,N
1684885035.8,286047000.2,N
1684885055.7,286046999.8,N
1684885075.5,286047000.5,N
1684885095.4,286047000.7,N
1684885115.2,286047000.5,N
1684885135.0,286047000.4,N
1684885135.9,286047000.4,N
1684885155.8,286047000.0,N
1684885175.6,286047000.0,N
1684885195.4,286047000.5,N
1684885215.3,286046999.9,N
1684885235.1,286047002.4,N
1684885255.9,286047000.3,N
1684885275.7,286047000.0,N
1684885295.5,286046999.7,N
1684885315.4,286047002.6,N
1684885335.2,286047002.7,N
1684885355.0,286047000.9,N
1684885355.9,286047000.9,N
1684885375.8,286047000.3,N
1684885395.6,286047000.1,N
1684885415.5,286047002.1,N
1684885435.3,286047000.8,N
1684885455.1,286046999.9,N
1684885475.9,286047004.4,Y
1684885495.7,286047001.9,P
1684885515.6,286047002.0,N
1684885535.4,286047001.9,N
1684885555.2,286047001.4,N
1684885605.1,286047001.5,E
1684885615.0,286047002.7,N
1684885615.9,286047002.7,P
1684885635.8,286047000.8,P
1684885655.6,286047000.5,N
1684885675.4,286046998.1,N
1684885695.3,286047000.8,N
1684885715.1,286047000.7,N
1684885735.9,286047000.6,N
1684885755.7,286047000.4,N
1684885775.5,286047000.2,N
1684885795.4,286047000.4,N
1684885815.2,286047002.3,N
1684885835.0,286046999.9,N
1684885835.9,286046999.9,N
1684885855.8,286047001.5,N
1684885875.6,286047002.0,N
1684885895.5,286047004.4,Y
1684885915.3,286047002.4,P
1684885935.1,286046999.7,N
1684885955.9,286047000.6,N
1684885975.7,286046999.9,N
1684885995.5,286047000.2,N
1684886015.4,286047000.2,N
1684886035.2,286046999.9,N
1684886055.1,286047002.7,Y
1684886056.0,286047002.7,P
1684886075.8,286047000.4,N
1684886095.6,286047000.6,N
1684886115.5,286046999.9,N
1684886135.3,286046999.9,N
1684886155.2,286047001.2,N
1684886175.9,286046999.9,N
1684886195.7,286047001.0,N
1684886215.6,286047001.1,N
1684886235.4,286047001.2,N
1684886255.2,286046998.4,N
1684886275.1,286046998.5,N
1684886276.0,286046998.5,N
1684886295.8,286046998.1,N
1684886315.7,286046998.2,N
1684886335.5,286046999.9,N
1684886355.3,286047001.0,N
1684886375.2,286047000.2,N
1684886395.0,286047002.6,N
1684886395.9,286047002.6,N
